Time,TemperatureF,DewpointF,PressureIn,WindDirection,WindDirectionDegrees,WindSpeedMPH,WindSpeedGustMPH,Humidity,HourlyPrecipIn,Conditions,Clouds,dailyrainin,SoftwareType,DateUTC
2013-01-27 00:01:00,24.0,18.0,30.39,SE,128,3.0,8.0,77,0.00,,,0.00,,2013-01-27 06:01:00,
2013-01-27 00:11:00,24.0,18.0,30.39,SE,128,3.0,8.0,77,0.00,,,0.00,,2013-01-27 06:11:00,
2013-01-27 00:21:00,23.0,17.0,30.39,SE,134,3.0,7.0,78,0.00,,,0.00,,2013-01-27 06:21:00,
2013-01-27 00:32:00,23.0,17.0,30.39,SE,135,3.0,7.0,78,0.00,,,0.00,,2013-01-27 06:32:00,
2013-01-27 00:42:00,23.0,17.0,30.39,SE,135,3.0,7.0,78,0.00,,,0.00,,2013-01-27 06:42:00,
2013-01-27 00:52:00,24.0,18.0,30.39,ESE,122,3.0,7.0,78,0.00,,,0.00,,2013-01-27 06:52:00,
2013-01-27 01:01:00,23.0,17.0,30.39,SSE,148,4.0,8.0,78,0.00,,,0.00,,2013-01-27 07:01:00,
2013-01-27 01:14:00,23.0,17.0,30.39,SSE,148,4.0,8.0,78,0.00,,,0.00,,2013-01-27 07:14:00,
2013-01-27 01:21:00,23.0,18.0,30.39,SE,132,4.0,7.0,80,0.00,,,0.00,,2013-01-27 07:21:00,
2013-01-27 01:31:00,23.0,18.0,30.39,SE,132,4.0,7.0,80,0.00,,,0.00,,2013-01-27 07:31:00,
2013-01-27 01:41:00,23.0,18.0,30.39,SE,132,4.0,7.0,80,0.00,,,0.00,,2013-01-27 07:41:00,
2013-01-27 01:52:00,23.0,18.0,30.39,SE,130,4.0,7.0,81,0.00,,,0.00,,2013-01-27 07:52:00,
2013-01-27 02:01:00,22.0,17.0,30.39,SE,134,3.0,8.0,81,0.00,,,0.00,,2013-01-27 08:01:00,
2013-01-27 02:11:00,22.0,17.0,30.39,SE,134,3.0,8.0,81,0.00,,,0.00,,2013-01-27 08:11:00,
2013-01-27 02:22:00,22.0,17.0,30.38,ESE,111,4.0,8.0,82,0.00,,,0.00,,2013-01-27 08:22:00,
2013-01-27 02:31:00,23.0,18.0,30.37,ESE,118,4.0,8.0,82,0.00,,,0.00,,2013-01-27 08:31:00,
2013-01-27 02:42:00,23.0,18.0,30.37,ESE,118,4.0,8.0,82,0.00,,,0.00,,2013-01-27 08:42:00,
2013-01-27 02:52:00,23.0,18.0,30.37,SE,128,5.0,11.0,82,0.00,,,0.00,,2013-01-27 08:52:00,
2013-01-27 03:02:00,24.0,19.0,30.37,SE,138,5.0,11.0,81,0.00,,,0.00,,2013-01-27 09:02:00,
2013-01-27 03:11:00,24.0,19.0,30.37,SE,138,5.0,11.0,81,0.00,,,0.00,,2013-01-27 09:11:00,
2013-01-27 03:21:00,23.0,18.0,30.36,SE,142,4.0,9.0,81,0.00,,,0.00,,2013-01-27 09:21:00,
2013-01-27 03:32:00,24.0,19.0,30.35,ESE,113,4.0,11.0,82,0.00,,,0.00,,2013-01-27 09:32:00,
2013-01-27 03:41:00,24.0,19.0,30.35,ESE,113,4.0,11.0,82,0.00,,,0.00,,2013-01-27 09:41:00,
2013-01-27 03:52:00,24.0,19.0,30.36,SE,139,5.0,11.0,82,0.00,,,0.00,,2013-01-27 09:52:00,
2013-01-27 04:01:00,24.0,19.0,30.35,SSE,164,6.0,11.0,82,0.00,,,0.00,,2013-01-27 10:01:00,
2013-01-27 04:11:00,24.0,19.0,30.35,SSE,164,6.0,11.0,82,0.00,,,0.00,,2013-01-27 10:11:00,
2013-01-27 04:21:00,24.0,19.0,30.34,SSE,155,6.0,11.0,82,0.00,,,0.00,,2013-01-27 10:21:00,
2013-01-27 04:31:00,23.0,18.0,30.33,SE,124,5.0,10.0,82,0.00,,,0.00,,2013-01-27 10:31:00,
2013-01-27 04:42:00,23.0,18.0,30.33,SE,124,5.0,10.0,82,0.00,,,0.00,,2013-01-27 10:42:00,
2013-01-27 04:52:00,24.0,19.0,30.32,SSE,157,6.0,10.0,82,0.00,,,0.00,,2013-01-27 10:52:00,
2013-01-27 05:01:00,24.0,19.0,30.32,SSE,162,7.0,14.0,82,0.00,,,0.00,,2013-01-27 11:01:00,
2013-01-27 05:11:00,24.0,19.0,30.32,SSE,162,7.0,14.0,82,0.00,,,0.00,,2013-01-27 11:11:00,
2013-01-27 05:21:00,24.0,19.0,30.31,ESE,116,7.0,15.0,82,0.00,,,0.00,,2013-01-27 11:21:00,
2013-01-27 05:32:00,25.0,20.0,30.31,SSE,155,6.0,14.0,81,0.00,,,0.00,,2013-01-27 11:32:00,
2013-01-27 05:42:00,25.0,20.0,30.31,SSE,155,6.0,14.0,81,0.00,,,0.00,,2013-01-27 11:42:00,
2013-01-27 05:52:00,25.0,20.0,30.31,SE,128,6.0,14.0,81,0.00,,,0.00,,2013-01-27 11:52:00,
2013-01-27 06:02:00,25.0,20.0,30.32,SE,144,9.0,15.0,80,0.00,,,0.00,,2013-01-27 12:02:00,
2013-01-27 06:11:00,25.0,20.0,30.32,SE,144,9.0,15.0,80,0.00,,,0.00,,2013-01-27 12:11:00,
2013-01-27 06:21:00,25.0,20.0,30.32,SE,141,8.0,13.0,81,0.00,,,0.00,,2013-01-27 12:21:00,
2013-01-27 06:32:00,25.0,20.0,30.32,SE,131,5.0,14.0,80,0.00,,,0.00,,2013-01-27 12:32:00,
2013-01-27 06:42:00,25.0,20.0,30.32,SE,131,5.0,14.0,80,0.00,,,0.00,,2013-01-27 12:42:00,
2013-01-27 06:52:00,26.0,21.0,30.33,SSE,148,5.0,11.0,80,0.00,,,0.00,,2013-01-27 12:52:00,
2013-01-27 07:02:00,26.0,21.0,30.32,SE,142,7.0,13.0,80,0.00,,,0.00,,2013-01-27 13:02:00,
2013-01-27 07:11:00,26.0,21.0,30.32,SE,142,7.0,13.0,80,0.00,,,0.00,,2013-01-27 13:11:00,
2013-01-27 07:22:00,26.0,21.0,30.31,SE,130,8.0,12.0,80,0.00,,,0.00,,2013-01-27 13:22:00,
2013-01-27 07:32:00,26.0,21.0,30.30,SSE,148,9.0,14.0,80,0.00,,,0.00,,2013-01-27 13:32:00,
2013-01-27 07:42:00,26.0,21.0,30.30,SSE,148,9.0,14.0,80,0.00,,,0.00,,2013-01-27 13:42:00,
2013-01-27 07:52:00,26.0,21.0,30.29,SE,133,8.0,16.0,81,0.00,,,0.00,,2013-01-27 13:52:00,
2013-01-27 08:02:00,26.0,21.0,30.29,SE,128,8.0,16.0,80,0.00,,,0.00,,2013-01-27 14:02:00,
2013-01-27 08:11:00,26.0,21.0,30.29,SE,128,8.0,16.0,80,0.00,,,0.00,,2013-01-27 14:11:00,
2013-01-27 08:22:00,27.0,22.0,30.30,SE,126,10.0,19.0,80,0.00,,,0.00,,2013-01-27 14:22:00,
2013-01-27 08:32:00,27.0,22.0,30.31,ESE,118,8.0,14.0,80,0.00,,,0.00,,2013-01-27 14:32:00,
2013-01-27 08:42:00,27.0,22.0,30.31,ESE,118,8.0,14.0,80,0.00,,,0.00,,2013-01-27 14:42:00,
2013-01-27 08:53:00,28.0,22.0,30.32,SSE,155,8.0,14.0,78,0.00,,,0.00,,2013-01-27 14:53:00,
2013-01-27 09:02:00,28.0,22.0,30.32,SSE,149,5.0,14.0,78,0.00,,,0.00,,2013-01-27 15:02:00,
2013-01-27 09:12:00,28.0,22.0,30.32,SSE,149,5.0,14.0,78,0.00,,,0.00,,2013-01-27 15:12:00,
2013-01-27 09:22:00,29.0,23.0,30.32,SE,140,5.0,13.0,77,0.00,,,0.00,,2013-01-27 15:22:00,
2013-01-27 09:32:00,29.0,23.0,30.32,SE,140,5.0,13.0,77,0.00,,,0.00,,2013-01-27 15:32:00,
2013-01-27 09:42:00,29.0,23.0,30.32,SE,140,5.0,13.0,77,0.00,,,0.00,,2013-01-27 15:42:00,
2013-01-27 09:53:00,30.0,23.0,30.31,SE,125,8.0,16.0,75,0.00,,,0.00,,2013-01-27 15:53:00,
2013-01-27 10:02:00,30.0,23.0,30.32,SSE,157,8.0,15.0,75,0.00,,,0.00,,2013-01-27 16:02:00,
2013-01-27 10:12:00,30.0,23.0,30.32,SSE,157,8.0,15.0,75,0.00,,,0.00,,2013-01-27 16:12:00,
2013-01-27 10:21:00,31.0,24.0,30.32,SSE,167,5.0,15.0,75,0.00,,,0.00,,2013-01-27 16:21:00,
2013-01-27 10:32:00,31.0,24.0,30.30,SSE,151,7.0,15.0,75,0.00,,,0.00,,2013-01-27 16:32:00,
2013-01-27 10:42:00,31.0,24.0,30.30,SSE,151,7.0,15.0,75,0.00,,,0.00,,2013-01-27 16:42:00,
2013-01-27 10:53:00,32.0,25.0,30.29,SE,143,7.0,16.0,74,0.00,,,0.00,,2013-01-27 16:53:00,
2013-01-27 11:02:00,33.0,25.0,30.28,SE,137,10.0,17.0,73,0.00,,,0.00,,2013-01-27 17:02:00,
2013-01-27 11:12:00,33.0,25.0,30.28,SE,137,10.0,17.0,73,0.00,,,0.00,,2013-01-27 17:12:00,
2013-01-27 11:22:00,33.0,25.0,30.26,SE,142,10.0,17.0,73,0.00,,,0.00,,2013-01-27 17:22:00,
2013-01-27 11:32:00,33.0,25.0,30.24,SE,146,9.0,20.0,73,0.00,,,0.00,,2013-01-27 17:32:00,
2013-01-27 11:42:00,33.0,25.0,30.24,SE,146,9.0,20.0,73,0.00,,,0.00,,2013-01-27 17:42:00,
2013-01-27 11:53:00,33.0,25.0,30.22,ESE,117,9.0,22.0,73,0.00,,,0.00,,2013-01-27 17:53:00,
2013-01-27 12:02:00,33.0,26.0,30.20,SE,124,10.0,21.0,75,0.00,,,0.00,,2013-01-27 18:02:00,
2013-01-27 12:11:00,33.0,26.0,30.20,SE,124,10.0,21.0,75,0.00,,,0.00,,2013-01-27 18:11:00,
2013-01-27 12:22:00,33.0,27.0,30.19,ESE,119,9.0,19.0,78,0.00,,,0.00,,2013-01-27 18:22:00,
2013-01-27 12:32:00,33.0,28.0,30.18,SSE,167,9.0,18.0,83,0.00,,,0.00,,2013-01-27 18:32:00,
2013-01-27 12:42:00,33.0,28.0,30.18,SSE,167,9.0,18.0,83,0.00,,,0.00,,2013-01-27 18:42:00,
2013-01-27 12:52:00,33.0,29.0,30.16,SE,138,7.0,17.0,85,0.00,,,0.00,,2013-01-27 18:52:00,
2013-01-27 13:02:00,33.0,29.0,30.16,SE,143,9.0,17.0,85,0.00,,,0.00,,2013-01-27 19:02:00,
2013-01-27 13:11:00,33.0,29.0,30.16,SE,143,9.0,17.0,85,0.00,,,0.00,,2013-01-27 19:11:00,
2013-01-27 13:22:00,32.0,29.0,30.15,SSW,192,11.0,19.0,87,0.01,,,0.01,,2013-01-27 19:22:00,
2013-01-27 13:32:00,32.0,29.0,30.14,SSE,165,11.0,19.0,89,0.01,,,0.01,,2013-01-27 19:32:00,
2013-01-27 13:42:00,32.0,29.0,30.14,SSE,165,11.0,19.0,89,0.01,,,0.01,,2013-01-27 19:42:00,
2013-01-27 13:52:00,32.0,29.0,30.12,ESE,118,10.0,17.0,90,0.01,,,0.01,,2013-01-27 19:52:00,
2013-01-27 14:02:00,32.0,30.0,30.11,SE,126,11.0,18.0,91,0.01,,,0.01,,2013-01-27 20:02:00,
2013-01-27 14:11:00,32.0,30.0,30.11,SE,126,11.0,18.0,91,0.01,,,0.01,,2013-01-27 20:11:00,
2013-01-27 14:22:00,32.0,30.0,30.11,SE,136,9.0,16.0,92,0.00,,,0.01,,2013-01-27 20:22:00,
2013-01-27 14:32:00,32.0,30.0,30.09,SE,131,7.0,14.0,93,0.01,,,0.02,,2013-01-27 20:32:00,
2013-01-27 14:42:00,32.0,30.0,30.09,SE,131,7.0,14.0,93,0.01,,,0.02,,2013-01-27 20:42:00,
2013-01-27 14:52:00,33.0,31.0,30.09,ESE,121,7.0,16.0,94,0.01,,,0.02,,2013-01-27 20:52:00,
2013-01-27 15:02:00,33.0,31.0,30.11,SSE,148,7.0,12.0,94,0.02,,,0.03,,2013-01-27 21:02:00,
2013-01-27 15:12:00,33.0,31.0,30.11,SSE,148,7.0,12.0,94,0.02,,,0.03,,2013-01-27 21:12:00,
2013-01-27 15:22:00,33.0,31.0,30.11,SSE,158,8.0,14.0,94,0.02,,,0.03,,2013-01-27 21:22:00,
2013-01-27 15:33:00,33.0,31.0,30.09,SSE,158,9.0,15.0,94,0.02,,,0.04,,2013-01-27 21:33:00,
2013-01-27 15:42:00,33.0,31.0,30.09,SSE,158,9.0,15.0,94,0.02,,,0.04,,2013-01-27 21:42:00,
2013-01-27 15:52:00,33.0,31.0,30.09,SSE,148,9.0,18.0,94,0.03,,,0.05,,2013-01-27 21:52:00,
2013-01-27 16:02:00,34.0,32.0,30.08,SSE,161,10.0,18.0,94,0.02,,,0.05,,2013-01-27 22:02:00,
2013-01-27 16:11:00,34.0,32.0,30.08,SSE,161,10.0,18.0,94,0.02,,,0.05,,2013-01-27 22:11:00,
2013-01-27 16:22:00,34.0,33.0,30.05,SE,146,12.0,21.0,95,0.03,,,0.06,,2013-01-27 22:22:00,
2013-01-27 16:32:00,34.0,32.0,30.04,SE,138,14.0,25.0,94,0.02,,,0.06,,2013-01-27 22:32:00,
2013-01-27 16:42:00,34.0,32.0,30.04,SE,138,14.0,25.0,94,0.02,,,0.06,,2013-01-27 22:42:00,
2013-01-27 16:52:00,35.0,33.0,30.03,SSE,167,13.0,23.0,93,0.02,,,0.07,,2013-01-27 22:52:00,
2013-01-27 17:02:00,35.0,33.0,30.04,SSE,159,11.0,25.0,94,0.02,,,0.07,,2013-01-27 23:02:00,
2013-01-27 17:12:00,35.0,33.0,30.04,SSE,159,11.0,25.0,94,0.02,,,0.07,,2013-01-27 23:12:00,
2013-01-27 17:21:00,35.0,33.0,30.04,SSE,149,12.0,20.0,94,0.01,,,0.07,,2013-01-27 23:21:00,
2013-01-27 17:32:00,35.0,34.0,30.03,SE,142,10.0,20.0,95,0.02,,,0.08,,2013-01-27 23:32:00,
2013-01-27 17:41:00,35.0,34.0,30.03,SE,142,10.0,20.0,95,0.02,,,0.08,,2013-01-27 23:41:00,
2013-01-27 17:53:00,35.0,34.0,30.03,SE,136,8.0,20.0,95,0.01,,,0.08,,2013-01-27 23:53:00,
2013-01-27 18:02:00,35.0,34.0,30.02,SE,146,10.0,21.0,95,0.01,,,0.08,,2013-01-28 00:02:00,
2013-01-27 18:11:00,35.0,34.0,30.02,SE,146,10.0,21.0,95,0.01,,,0.08,,2013-01-28 00:11:00,
2013-01-27 18:21:00,35.0,34.0,30.02,SE,130,8.0,19.0,95,0.01,,,0.09,,2013-01-28 00:21:00,
2013-01-27 18:32:00,36.0,35.0,30.01,SE,140,9.0,19.0,95,0.01,,,0.09,,2013-01-28 00:32:00,
2013-01-27 18:42:00,36.0,35.0,30.01,SE,140,9.0,19.0,95,0.01,,,0.09,,2013-01-28 00:42:00,
2013-01-27 18:52:00,35.0,34.0,30.01,SE,132,10.0,19.0,95,0.01,,,0.09,,2013-01-28 00:52:00,
2013-01-27 19:01:00,35.0,34.0,29.99,South,190,11.0,21.0,95,0.01,,,0.09,,2013-01-28 01:01:00,
2013-01-27 19:11:00,35.0,34.0,29.99,South,190,11.0,21.0,95,0.01,,,0.09,,2013-01-28 01:11:00,
2013-01-27 19:22:00,36.0,35.0,29.99,SE,136,10.0,23.0,96,0.00,,,0.09,,2013-01-28 01:22:00,
2013-01-27 19:32:00,36.0,35.0,29.98,SSE,160,10.0,27.0,96,0.01,,,0.10,,2013-01-28 01:32:00,
2013-01-27 19:42:00,36.0,35.0,29.98,SSE,160,10.0,27.0,96,0.01,,,0.10,,2013-01-28 01:42:00,
2013-01-27 19:52:00,36.0,35.0,29.98,South,183,12.0,20.0,96,0.01,,,0.10,,2013-01-28 01:52:00,
2013-01-27 20:02:00,36.0,35.0,29.97,SE,135,11.0,21.0,96,0.01,,,0.10,,2013-01-28 02:02:00,
2013-01-27 20:11:00,36.0,35.0,29.97,SE,135,11.0,21.0,96,0.01,,,0.10,,2013-01-28 02:11:00,
2013-01-27 20:22:00,37.0,36.0,29.97,SE,134,10.0,18.0,96,0.01,,,0.10,,2013-01-28 02:22:00,
2013-01-27 20:32:00,38.0,37.0,29.97,SE,140,8.0,19.0,97,0.00,,,0.10,,2013-01-28 02:32:00,
2013-01-27 20:42:00,38.0,37.0,29.97,SE,140,8.0,19.0,97,0.00,,,0.10,,2013-01-28 02:42:00,
2013-01-27 20:52:00,38.0,37.0,29.97,ESE,121,9.0,18.0,97,0.00,,,0.10,,2013-01-28 02:52:00,
2013-01-27 21:02:00,38.0,37.0,29.98,SE,141,9.0,16.0,97,0.01,,,0.11,,2013-01-28 03:02:00,
2013-01-27 21:12:00,38.0,37.0,29.98,SE,141,9.0,16.0,97,0.01,,,0.11,,2013-01-28 03:12:00,
2013-01-27 21:22:00,39.0,38.0,29.97,SSE,166,10.0,22.0,97,0.01,,,0.11,,2013-01-28 03:22:00,
2013-01-27 21:32:00,41.0,40.0,29.96,South,184,12.0,24.0,97,0.01,,,0.11,,2013-01-28 03:32:00,
2013-01-27 21:42:00,41.0,40.0,29.96,South,184,12.0,24.0,97,0.01,,,0.11,,2013-01-28 03:42:00,
2013-01-27 21:53:00,41.0,40.0,29.96,SSW,192,11.0,22.0,97,0.01,,,0.11,,2013-01-28 03:53:00,
2013-01-27 22:02:00,41.0,40.0,29.96,South,187,13.0,23.0,97,0.01,,,0.12,,2013-01-28 04:02:00,
2013-01-27 22:11:00,41.0,40.0,29.96,South,187,13.0,23.0,97,0.01,,,0.12,,2013-01-28 04:11:00,
2013-01-27 22:22:00,41.0,40.0,29.96,South,187,13.0,23.0,97,0.01,,,0.12,,2013-01-28 04:22:00,
2013-01-27 22:32:00,41.0,40.0,29.96,South,187,13.0,23.0,97,0.01,,,0.12,,2013-01-28 04:32:00,
2013-01-27 22:42:00,41.0,40.0,29.96,South,187,13.0,23.0,97,0.01,,,0.12,,2013-01-28 04:42:00,
2013-01-27 22:52:00,41.0,40.0,29.99,SSW,207,11.0,18.0,97,0.01,,,0.12,,2013-01-28 04:52:00,
2013-01-27 23:04:00,41.0,40.0,29.99,SW,215,10.0,20.0,97,0.00,,,0.12,,2013-01-28 05:04:00,
2013-01-27 23:11:00,41.0,40.0,29.99,SW,215,10.0,20.0,97,0.00,,,0.12,,2013-01-28 05:11:00,
2013-01-27 23:21:00,41.0,40.0,30.00,SW,216,10.0,17.0,97,0.00,,,0.12,,2013-01-28 05:21:00,
2013-01-27 23:32:00,41.0,40.0,29.99,South,177,10.0,17.0,97,0.00,,,0.12,,2013-01-28 05:32:00,
2013-01-27 23:41:00,41.0,40.0,29.99,South,177,10.0,17.0,97,0.00,,,0.12,,2013-01-28 05:41:00,
2013-01-27 23:52:00,41.0,40.0,29.98,South,175,7.0,15.0,97,0.00,,,0.12,,2013-01-28 05:52:00,